カタログに戻る

STARLINK-4339

運用中通信SSO
NORAD 53054·PAYLOAD·🇺🇸 United States

打ち上げ Jul 11, 2022 から Vandenberg Space Force Base

Loading…

次のパス (今後24時間)

TLE

最新Source: CelesTrak SupGP

元期: Sep 14, 2026, 20:46 UTC

1 53054C 22077M   26257.86576389  .00083587  00000+0  25903-2 0  2577
2 53054  97.2856  73.6430 0001230  99.1742 238.0522 15.33452135    12

AllMySatでSTARLINK-4339をリアルタイム追跡

Download on the App Store